Regional Weather Roundup
Issued by NWS Upton, NY

Current Version | Previous Version | Text Only | Print | Product List | Glossary On
Versions: 1 2 3 4 5 6 7 8 9 10 11 12 13 14 15 16 17 18 19 20 21 22 23 24 25 26 27 28 29 30 31 32 33 34 35 36 37 38 39 40 41 42 43 44 45 46 47 48 49
000 ASUS41 KOKX 300409 RWROKX REGIONAL WEATHER ROUNDUP NATIONAL WEATHER SERVICE NEW YORK NY 1200 AM EDT THU JUL 30 2015 NOTE: "FAIR" INDICATES FEW OR NO CLOUDS BELOW 12,000 FEET WITH NO SIGNIFICANT WEATHER AND/OR OBSTRUCTIONS TO VISIBILITY. NYZ071-072-176-178-NJZ106-104-300500- NEW YORK CITY METRO AREA CITY SKY/WX TMP DP RH WIND PRES REMARKS CENTRAL PARK CLEAR 83 70 64 VRB5 29.96R LAGUARDIA APRT PTCLDY 83 71 67 SW9 29.92S KENNEDY INTL PTCLDY 80 72 76 SW9 29.94S NEWARK/LIBERTY PTCLDY 82 72 71 SW12 29.93R BRNX BOT. GARD N/A 82 70 65 S8 29.94R TETERBORO CLEAR 83 70 64 SW8 29.91S $$ NYZ177-179-078>081-300500- LONG ISLAND NEW YORK CITY SKY/WX TMP DP RH WIND PRES REMARKS FARMINGDALE CLEAR 81 72 74 SW8 29.94S ISLIP PTCLDY 79 73 82 SW9 29.92S SHIRLEY CLEAR 79 74 84 S8 29.94F WESTHAMPTON CLEAR 77 74 90 SW8 29.95F MONTAUK POINT N/A 77 73 87 SW7 29.94F $$ NYZ052-065-067-300500- HUDSON VALLEY CITY SKY/WX TMP DP RH WIND PRES REMARKS WHITE PLAINS CLEAR 76 71 85 CALM 29.94R NEWBURGH CLEAR 79 66 65 CALM 29.94S MONTGOMERY CLEAR 71 66 84 SW6 29.93R POUGHKEEPSIE CLEAR 74 68 81 CALM 29.91R ALBANY PTCLDY 77 66 68 CALM 29.89S $$ NJZ001-105-106-008-010-013-015-019>022-104-300500- NEW JERSEY CITY SKY/WX TMP DP RH WIND PRES REMARKS NEWARK/LIBERTY PTCLDY 82 72 71 SW12 29.93R TETERBORO CLEAR 83 70 64 SW8 29.91S CALDWELL CLEAR 80 70 71 CALM 29.94R MORRISTOWN CLEAR 79 70 73 W3 29.94S SOMERVILLE CLEAR 77 71 82 CALM 29.92S SUSSEX CLEAR 71 68 90 CALM 29.95S ANDOVER N/A 71 70 96 CALM 29.96S TRENTON CLEAR 77 71 82 S6 29.95R MILLVILLE PTCLDY 79 72 79 VRB6 29.97S ATLANTIC CITY PTCLDY 78 72 81 S7 29.96F WRIGHTSTOWN CLEAR 74 73 96 SW6 29.93S TOMS RIVER N/A 73 72 94 CALM 29.96S BELMAR CLEAR 77 68 73 SW6 29.96R $$ PAZ047>061-062-071-300500- EASTERN PENNSYLVANIA CITY SKY/WX TMP DP RH WIND PRES REMARKS PHILADELPHIA PTCLDY 82 73 74 SW9 29.95S ALLENTOWN CLEAR 77 71 82 W3 29.95S SCRANTON CLEAR 79 69 71 VRB3 29.95F $$ CTZ002-004>006-009-010-012-RIZ004-006-007-MAZ004-011-015-300500- SOUTHERN NEW ENGLAND IN CT CITY SKY/WX TMP DP RH WIND PRES REMARKS BRADLEY INTL CLEAR 77 66 68 S6 29.90S HARTFORD CLEAR 77 69 76 CALM 29.90F DANBURY CLEAR 73 67 81 SW3 29.95S WTRBRY/OXFORD CLEAR 73 64 73 CALM 29.97R BRIDGEPORT CLEAR 79 73 82 SW3 29.92S MERIDEN CLEAR 74 67 78 CALM 29.92S NEW HAVEN CLEAR 75 71 87 S3 29.92F CHESTER FAIR 75 72 88 SW6 29.95S GROTON CLEAR 74 70 87 S3 29.92F WILLIMANTIC CLEAR 72 67 84 NE3 29.93S IN RI CITY SKY/WX TMP DP RH WIND PRES REMARKS PROVIDENCE PTCLDY 78 67 68 W8 29.92S BLOCK ISLAND N/A 73 72 94 SW12 29.95S WESTERLY CLEAR 74 70 87 CALM 29.93F IN MA CITY SKY/WX TMP DP RH WIND PRES REMARKS BOSTON CLEAR 81 67 62 SW13 29.89S WORCESTER CLEAR 74 64 71 W9 29.95S WESTFIELD CLEAR 71 68 90 S3 29.91S PROVINCETOWN CLEAR 73 64 73 SW9 29.90S NANTUCKET CLEAR 73 71 93 SW9 29.94R FOG $$ ANZ330-335-338-340-345-350-353-355-300500- COASTAL MARINE OBSERVATIONS STATION/POSITION TIME SKY/WX TEMP WIND PRES VSBY WAVE AIR SEA DIR/SP/G HT/PER (UTC) (F) (DEG/KT/KT) (MB) (MI) (FT/S) NY HARB ENTRANCE 0350 78 76 220/ 12/ 14 1013.4 3/11 4S FIRE IS NOT AVBL 20S FIRE ISLAND 0350 76 74 220/ 14/ 16 1013.7 4/ 5 GREAT SOUTH BAY NOT AVBL 23SW MTP 0350 76 75 230/ 14/ 16 1013.6 4/10 HUDSON CANYON NOT AVBL KINGS POINT 0300 82 N/A EXECUTION ROCKS 0300 78 210/ 6/ 8 N/A CENTRAL LI SOUND NOT AVBL EASTERN LI SOUND 0300 71 69 240/ 4/ 4 N/A ROBBINS REEF 0300 82 N/A $$ >>>>>>>>>>>>>>>>>>>>>>>>>>>> KEY <<<<<<<<<<<<<<<<<<<<<<<<<<< > < > SKY/WX - SKY CONDITION/PRESENT WEATHER < > TMP - TEMPERATURE IN FAHRENHEIT < > DP - DEWPOINT IN FAHRENHEIT < > RH - RELATIVE HUMIDITY IN PERCENT < > WIND - DIRECTION AND SPEED IN MPH < > PRES - MEAN SEA LEVEL PRESSURE IN INCHES OF HG < > WCI - WIND CHILL INDEX < > VSB - VISIBILITY IN MILES < > HX - HEAT INDEX < > TC - TEMPERATURE IN CELSIUS < > VRB - VARIABLE WIND DIRECTION < > < >>>>>>>>>>>>>>>>>>>>>>>>>>>> KEY <<<<<<<<<<<<<<<<<<<<<<<<<<<

USA.gov is the U.S. government's official web portal to all federal, state and local government web resources and services.